Overview Statistics Trail Chart Weather Telemetry Raw packets
 

This is the latest recevied weather packets stored in our database for station/object SALIDA. If no packets are shown the sender has not sent any weather packets the latest 10 day(s).

<< 34 35 36 37 38 39 >>
Time Temp. Humidity Pressure Rain* Wind** Luminosity Snow
1787763441 20.56° C 55% 1014.9 hPa 0 mm - - -
1787762541 20° C 57% 1015.3 hPa 0 mm - - -
1787761641 18.89° C 59% 1015.5 hPa 0 mm - - -
1787760741 18.33° C 60% 1015.9 hPa 0 mm - - -
1787759841 17.22° C 65% 1016.2 hPa 0 mm - - -
1787758941 16.67° C 69% 1016.5 hPa 0 mm - - -
1787758041 15.56° C 72% 1016.6 hPa 0 mm - - -
1787757141 15° C 74% 1016.7 hPa 0 mm - - -
1787756241 13.89° C 76% 1016.8 hPa 0 mm - - -
1787755342 13.33° C 79% 1017 hPa 0 mm - - -
1787754442 12.22° C 81% 1017.3 hPa 0 mm - - -
1787753542 11.11° C 84% 1017.3 hPa 0 mm - - -
1787752642 10.56° C 87% 1017.5 hPa 0 mm - - -
1787751742 9.44° C 89% 1017.5 hPa 0 mm - - -
1787750842 8.89° C 91% 1017.5 hPa 0 mm - - -
1787749942 8.33° C 91% 1017.6 hPa 0 mm - - -
1787749042 8.33° C 90% 1017.5 hPa 0 mm - - -
1787748142 8.33° C 90% 1017.2 hPa 0 mm - - -
1787747242 8.89° C 90% 1017 hPa 0 mm - - -
1787746342 8.89° C 91% 1016.8 hPa 0 mm - - -
1787745442 8.33° C 91% 1016.5 hPa 0 mm - - -
1787744542 8.89° C 91% 1016.3 hPa 0 mm - - -
1787743642 8.89° C 91% 1016.3 hPa 0 mm - - -
1787742742 8.89° C 91% 1016.4 hPa 0 mm - - -
1787741842 8.89° C 91% 1016.2 hPa 0 mm - - -

* Rain latest hour (hover to see other rain measurements)
** Current wind speed in m/s (hover to see current wind gust speed)